CHINASAT 2A (ZX 2A)

Last updated on Sat Jun 29 2024 00:02:38 GMT+0000 (Coordinated Universal Time)

1 38352U 12028A 24180.55973561 -.00000290 00000+0 00000+0 0 9990 2 38352 0.0426 221.4236 0002290 166.7171 188.7561 1.00271232 44177

Satellite not in orbit

CHINASAT 2A (ZX 2A)